Regional Weather Roundup
Issued by NWS

Home | Current Version | Previous Version | Text Only | Print | Product List | Glossary Off
Versions: 1 2 3 4 5 6 7 8 9 10 11 12 13 14 15 16 17 18 19 20 21 22 23 24 25 26 27

000
ASUS45 KBOU 241106
RWRCO

WEATHER ROUNDUP FOR COLORADO
NATIONAL WEATHER SERVICE DENVER/BOULDER CO
500 AM MDT THU APR 24 2014

NOTE: "FAIR" INDICATES FEW OR NO CLOUDS BELOW 12000 FEET WITH NO
SIGNIFICANT WEATHER AND/OR OBSTRUCTIONS TO VISIBILITY.

COZ001>005-013-030-031-241200-
...NORTHWEST COLORADO...

CITY           SKY/WX    TMP DP  RH WIND       PRES   REMARKS
CRAIG          CLEAR     20  16  84 CALM      30.12R
HAYDEN         CLEAR     27  16  63 CALM      30.12S
MEEKER         CLEAR     25  15  66 E5        30.13R WCI  19
MOUNT WERNER   CLEAR     19  10  68 W16       30.08S WCI   5
STEAMBOAT SPGS CLEAR     26  16  66 CALM      30.11R
WALDEN         CLEAR     21  12  68 CALM      30.04F
$$

COZ006>008-011-241200-
...WEST CENTRAL VALLEYS...

CITY           SKY/WX    TMP DP  RH WIND       PRES   REMARKS
GRAND JUNCTION CLEAR     28  12  51 E5        30.10R WCI  23
MONTROSE       CLEAR     31  15  52 SE9       30.13S WCI  23
EAGLE          CLEAR     25  18  74 SE5       30.15R WCI  19
RIFLE          CLEAR     27  15  61 SE5       30.12R WCI  22
DELTA          NOT AVBL
NUCLA          NOT AVBL
$$

COZ017>023-064>068-241200-
...SOUTHWEST COLORADO...

CITY           SKY/WX    TMP DP  RH WIND       PRES   REMARKS
DURANGO        CLEAR     31   7  36 CALM      30.06R
CORTEZ         CLEAR     24  13  62 CALM      30.09S
PAGOSA SPRINGS CLEAR     23  14  68 CALM      30.08R
TELLURIDE      CLEAR     27  10  50 SE6       30.12S WCI  20
WOLF CREEK PAS PTCLDY    19  -8  30 SW10      30.10R WCI   8
$$

COZ009-010-012-014-032>034-037-058>063-241200-
...CENTRAL COLORADO...

CITY           SKY/WX    TMP DP  RH WIND       PRES   REMARKS
ASPEN          CLEAR     26  14  60 SW6       30.10R WCI  19
BUENA VISTA    CLEAR     32   8  36 NW16      30.03S WCI  21
COPPER MTN     PTCLDY    16   5  62 W15G21    30.07S WCI   1
BERTHOUD PASS  FAIR       7  -4  61 NW38G46   29.99S WCI -19
COTTONWOOD PAS CLEAR     32   3  29 W25G37    30.04R WCI  19
GUNNISON       CLEAR     30   9  40 CALM      30.12S
KREMMLING      CLEAR     30  12  47 NW3       30.12R
LEADVILLE      PTCLDY    19   7  59 N8        30.08R WCI   9
MONARCH PASS   CLEAR     14   7  73 W43G51    30.13S WCI -10
SALIDA         CLEAR     33  11  40 W6        30.11R WCI  27
SUNLIGHT       CLEAR     21  12  68 CALM      30.13R
WILKERSON PASS CLEAR     19   5  53 W6        30.06R WCI  11
$$

COZ069>075-241200-
...SAN LUIS VALLEY/SANGRE DE CRISTO MOUNTAINS...

CITY           SKY/WX    TMP DP  RH WIND       PRES   REMARKS
ALAMOSA        CLEAR     25  11  55 CALM      30.05R
LA VETA PASS   CLEAR     25  10  54 W5        30.05F WCI  19
SAGUACHE       CLEAR     28   7  40 N6        30.07R WCI  22
$$

COZ035-036-038>040-241200-
...NORTHERN COLORADO FRONT RANGE...

CITY           SKY/WX    TMP DP  RH WIND       PRES   REMARKS
DENVER INTL AP PTCLDY    35  21  56 N9        29.99S WCI  28
DMNS CITY PARK   N/A     37  21  52 NE2       29.99F
AURORA         PTCLDY    36  21  55 N3        30.01R
FRONT RANGE AP NOT AVBL
ERIE MUNI ARPT CLEAR     34  26  74 CALM      29.99S
BOULDER MUN AP CLEAR     37  32  81 S5        29.99S
CENTENNIAL     CLEAR     36  28  73 E3        30.00S
BROOMFIELD     CLEAR     36  32  87 SE5       30.00S
FORT COLLINS   CLEAR     39  14  35 N13       30.00S
LONGMONT       NOT AVBL
$$

COZ041-046-047-076>085-087-088-241200-
...PIKES PEAK/PALMER DIVIDE AND SOUTHERN FOOTHILLS...

CITY           SKY/WX    TMP DP  RH WIND       PRES   REMARKS
COLO. SPRINGS  CLEAR     34  30  85 SW6       30.01R WCI  29
A. F. ACADEMY  CLEAR     29  29  99 CALM      30.00R
ELLICOTT       NOT AVBL
FALCON         CLEAR     32  26  77 N12       30.01R WCI  23
FORT CARSON    CLEAR     36  29  76 S2        30.00R
LIMON          PTCLDY    35  22  58 NW15      29.98R WCI  25
MONUMENT HILL  CLEAR     28  27  93 N6        30.00S WCI  22
TRINIDAD       CLOUDY    39  33  79 W6        30.04R
$$

COZ042>045-048>051-090-091-241200-
...NORTHEAST COLORADO...

CITY           SKY/WX    TMP DP  RH WIND       PRES   REMARKS
GREELEY ARPT   CLEAR     43  12  28 N25G31    29.98F
AKRON          MOCLDY    39  17  41 NW20G29   29.95R
BURLINGTON     CLOUDY    47  33  58 NW20      29.90R
WRAY           CLOUDY    47  36  65 NW12      29.91R
STERLING       NOT AVBL
HOLYOKE        NOT AVBL
FORT MORGAN    NOT AVBL
$$

COZ086-089-092>099-241200-
...SOUTHEAST COLORADO...

CITY           SKY/WX    TMP DP  RH WIND       PRES   REMARKS
PUEBLO         CLEAR     40  32  73 CALM      30.01R
LA JUNTA       CLOUDY    44  38  79 W15       29.99R
LAMAR          CLOUDY    46  36  68 W13       29.92R
SPRINGFIELD      N/A     39  38  96 NW12      29.94S
$$



USA.gov is the U.S. government's official web portal to all federal, state and local government web resources and services.